Weather History for PHKO - April, 2014

Change the Weather History Date:

Tuesday, April 15, 2014

  Actual Average Record
Temperature  
Mean Temperature 78 °F -  
Max Temperature 84 °F 80 °F 90 °F (1983)
Min Temperature 72 °F 69 °F 67 °F (1982)
Cooling Degree Days 13    
Growing Degree Days 28 (Base 50)    
Moisture  
Dew Point 60 °F    
Average Humidity 55    
Maximum Humidity 64    
Minimum Humidity 46    
Precipitation  
Precipitation 0.00 in - - ()
Sea Level Pressure  
Sea Level Pressure 30.01 in    
Wind  
Wind Speed 8 mph (SSE)    
Max Wind Speed 13 mph    
Max Gust Speed 20 mph    
Visibility 10 miles    
Events      
Averages and records for this station are not official NWS values.
T = Trace of Precipitation, MM = Missing Value Source: NWS Daily Summary

Daily Weather History Graph

Daily Weather History Graph

Search for Another Location

Airport or City:

Trip Planner

Search our weather history database for the weather conditions in past years. The results will help you decide how hot, cold, wet, or windy it might be!

Date:

Astronomy

Apr. 15, 2014 Rise Set
Actual Time 6:06 AM HST 6:42 PM HST
Civil Twilight 5:43 AM HST 7:04 PM HST
Nautical Twilight 5:17 AM HST 7:31 PM HST
Astronomical Twilight 4:50 AM HST 7:57 PM HST
Moon 7:27 PM HST (4/15) 6:24 AM HST (4/15)
Length of Visible Light 13h 20m
Length of Day
12h 36m
Full, 100% of the Moon is Illuminated
Apr 15
Full
Apr 21
Last Quarter
Apr 28
New
May 6
First Quarter
May 14
Full

Hourly Weather History & Observations

Time (HST) Temp. Heat Index Dew Point Humidity Pressure Visibility Wind Dir Wind Speed Gust Speed Precip Events Conditions
12:53 AM 73.0 °F - 55.0 °F 53% 30.02 in 10.0 mi NE 10.4 mph - N/A   Clear
1:53 AM 73.0 °F - 55.9 °F 55% 29.99 in 10.0 mi North 4.6 mph - N/A   Clear
2:53 AM 73.9 °F - 55.0 °F 52% 29.99 in 10.0 mi NE 6.9 mph - N/A   Mostly Cloudy
3:53 AM 73.0 °F - 57.0 °F 57% 29.98 in 10.0 mi ESE 3.5 mph - N/A   Scattered Clouds
4:53 AM 72.0 °F - 53.1 °F 51% 29.99 in 10.0 mi Calm Calm - 0.00 in   Partly Cloudy
5:53 AM 72.0 °F - 57.9 °F 61% 30.00 in 10.0 mi ESE 5.8 mph - N/A   Clear
6:53 AM 73.9 °F - 57.0 °F 55% 30.03 in 10.0 mi North 6.9 mph - N/A   Partly Cloudy
7:53 AM 75.9 °F - 55.0 °F 48% 30.03 in 10.0 mi ESE 4.6 mph - N/A   Clear
8:53 AM 80.1 °F 81.1 °F 61.0 °F 52% 30.04 in 10.0 mi South 9.2 mph - N/A   Clear
9:53 AM 81.0 °F 81.9 °F 62.1 °F 52% 30.05 in 10.0 mi WSW 8.1 mph - N/A   Clear
10:53 AM 82.0 °F 83.0 °F 62.1 °F 51% 30.04 in 10.0 mi WSW 10.4 mph - N/A   Clear
11:53 AM 82.0 °F 83.0 °F 62.1 °F 51% 30.03 in 10.0 mi WSW 8.1 mph - N/A   Clear
12:53 PM 84.0 °F 84.4 °F 61.0 °F 46% 30.00 in 10.0 mi SSW 10.4 mph - N/A   Partly Cloudy
1:53 PM 82.0 °F 83.1 °F 63.0 °F 52% 29.98 in 10.0 mi South 12.7 mph 19.6 mph N/A   Clear
2:53 PM 82.9 °F 83.7 °F 62.1 °F 49% 29.96 in 10.0 mi SW 11.5 mph - N/A   Mostly Cloudy
3:53 PM 82.0 °F 83.0 °F 62.1 °F 51% 29.96 in 10.0 mi SSW 9.2 mph - N/A   Overcast
4:53 PM 81.0 °F 82.5 °F 64.0 °F 56% 29.96 in 10.0 mi SSW 10.4 mph - N/A   Overcast
5:53 PM 80.1 °F 81.5 °F 63.0 °F 56% 29.99 in 10.0 mi South 9.2 mph - N/A   Overcast
6:53 PM 79.0 °F - 64.0 °F 60% 30.01 in 10.0 mi South 5.8 mph - N/A   Partly Cloudy
7:53 PM 78.1 °F - 64.0 °F 62% 30.02 in 10.0 mi South 5.8 mph - N/A   Clear
8:53 PM 78.1 °F - 64.9 °F 64% 30.03 in 10.0 mi South 9.2 mph - N/A   Overcast
9:53 PM 75.9 °F - 62.1 °F 62% 30.06 in 10.0 mi ESE 8.1 mph - N/A   Partly Cloudy
10:53 PM 75.9 °F - 63.0 °F 64% 30.06 in 10.0 mi ESE 5.8 mph - N/A   Scattered Clouds
11:53 PM 75.9 °F - 62.1 °F 62% 30.05 in 10.0 mi East 6.9 mph - N/A   Overcast